Smith Lake Weather Center

Moon Phase Calendar



Smith Lake Water Level
Online Cameras

 


      

Current Conditions in Good Hope
1/20/2021 8:15:58 PM

44°F
Feels Like 40
Rain
Humidity
93%
Pressure
30.24"
Wind
3 mph (SSW)
Dew Point
42°F
UV Index
0/10 (Low)
Visibility
6 mi

Hourly Forecast

Date & Time Wed, Jan 20
8:00 PM
Wed, Jan 20
9:00 PM
Wed, Jan 20
10:00 PM
Wed, Jan 20
11:00 PM
Thu, Jan 21
12:00 AM
Thu, Jan 21
1:00 AM
Thu, Jan 21
2:00 AM
Thu, Jan 21
3:00 AM
Thu, Jan 21
4:00 AM
Thu, Jan 21
5:00 AM
Thu, Jan 21
6:00 AM
Thu, Jan 21
7:00 AM
Thu, Jan 21
8:00 AM
Thu, Jan 21
9:00 AM
Thu, Jan 21
10:00 AM
Thu, Jan 21
11:00 AM
Thu, Jan 21
12:00 PM
Thu, Jan 21
1:00 PM
Thu, Jan 21
2:00 PM
Thu, Jan 21
3:00 PM
Thu, Jan 21
4:00 PM
Thu, Jan 21
5:00 PM
Thu, Jan 21
6:00 PM
Thu, Jan 21
7:00 PM
Thu, Jan 21
8:00 PM
Thu, Jan 21
9:00 PM
Thu, Jan 21
10:00 PM
Thu, Jan 21
11:00 PM
Fri, Jan 22
12:00 AM
Fri, Jan 22
1:00 AM
Fri, Jan 22
2:00 AM
Fri, Jan 22
3:00 AM
Fri, Jan 22
4:00 AM
Fri, Jan 22
5:00 AM
Fri, Jan 22
6:00 AM
Fri, Jan 22
7:00 AM
Fri, Jan 22
8:00 AM
Fri, Jan 22
9:00 AM
Fri, Jan 22
10:00 AM
Fri, Jan 22
11:00 AM
Fri, Jan 22
12:00 PM
Fri, Jan 22
1:00 PM
Fri, Jan 22
2:00 PM
Fri, Jan 22
3:00 PM
Fri, Jan 22
4:00 PM
Fri, Jan 22
5:00 PM
Fri, Jan 22
6:00 PM
Fri, Jan 22
7:00 PM
Condition
Clouds

Rain

Clouds

Rain

Rain

Rain

Rain

Clouds

Rain

Clouds

Rain

Rain

Rain

Rain

Rain

Rain

Rain

Rain

Rain

Clouds

Clouds

Clouds

Clouds

Clouds

Clouds

Clouds

Rain

Rain

Rain

Rain

Rain

Rain

Rain

Rain

Rain

Rain

Rain

Rain

Rain

Rain

Rain

Rain

Rain

Rain

Rain

Clouds

Clouds

Clouds
Temperature 44°F44°F45°F44°F44°F44°F45°F46°F46°F47°F48°F49°F50°F52°F53°F55°F55°F56°F57°F57°F56°F56°F55°F54°F54°F54°F53°F53°F53°F52°F52°F52°F51°F51°F50°F49°F48°F47°F47°F47°F46°F45°F44°F44°F44°F43°F42°F41°F
Feels Like 40°F39°F39°F38°F37°F37°F38°F39°F41°F43°F44°F45°F47°F49°F51°F53°F53°F54°F55°F56°F56°F55°F55°F54°F54°F54°F53°F53°F52°F52°F51°F50°F49°F47°F45°F44°F42°F41°F40°F40°F40°F38°F37°F37°F38°F39°F37°F36°F
Cloudiness 75%87%95%98%100%100%100%100%100%100%100%100%100%100%100%100%100%100%100%100%100%100%100%100%100%100%100%100%100%100%100%100%100%100%100%100%100%100%100%100%100%100%100%100%100%99%97%84%
Visibility 6 mi6 mi6 mi6 mi6 mi6 mi6 mi6 mi6 mi6 mi6 mi6 mi6 mi1 mi1 mi6 mi6 mi6 mi6 mi6 mi6 mi6 mi6 mi6 mi6 mi6 mi6 mi6 mi6 mi6 mi4 mi4 mi6 mi5 mi6 mi6 mi6 mi6 mi6 mi6 mi6 mi6 mi6 mi6 mi6 mi6 mi6 mi6 mi
Precipitation 0%20%0%28%31%100%100%80%89%86%84%92%100%100%100%100%100%96%76%64%56%46%46%26%32%28%36%56%74%86%97%98%99%99%99%98%98%99%100%100%100%98%97%97%96%76%76%0%
Humidity 93%80%72%75%82%86%88%88%91%94%95%97%98%98%98%97%97%96%96%95%97%97%97%97%97%96%97%97%97%97%98%98%97%96%95%94%93%91%90%89%89%88%88%89%88%87%89%89%
Dew Point 42°F38°F36°F37°F38°F40°F41°F42°F44°F46°F47°F48°F50°F51°F53°F54°F55°F55°F56°F56°F55°F55°F54°F54°F53°F53°F52°F52°F52°F52°F52°F51°F51°F50°F48°F48°F46°F45°F44°F44°F43°F42°F41°F41°F40°F40°F39°F38°F
Pressure 30.24"30.24"30.18"30.18"30.15"30.12"30.12"30.09"30.06"30.03"30.03"30.03"30.03"30"30"29.97"29.97"29.94"29.91"29.91"29.88"29.91"29.91"29.91"29.91"29.91"29.88"29.88"29.88"29.88"29.88"29.85"29.85"29.85"29.88"29.91"29.94"29.97"29.97"29.97"29.97"29.97"29.97"30"30"30.03"30.06"30.09"
Wind Speed 3 mph3.6 mph5.1 mph5.7 mph6.5 mph8 mph8.9 mph8.2 mph7.2 mph6.3 mph5.7 mph5.8 mph6 mph5.2 mph5.9 mph6.8 mph7 mph6.6 mph6.2 mph4.9 mph3.7 mph3.2 mph3 mph2.7 mph2.1 mph1.2 mph1.5 mph2 mph1.5 mph2.5 mph3 mph3.2 mph4.3 mph5.6 mph6.6 mph8.2 mph8.8 mph9.1 mph10 mph8.7 mph8.4 mph8.9 mph8.2 mph7.1 mph6.4 mph3.7 mph4.3 mph5.2 mph
Wind
Direction
193°
SSW
202°
SSW
223°
SW
219°
SW
216°
SW
217°
SW
213°
SSW
224°
SW
216°
SW
221°
SW
222°
SW
212°
SSW
220°
SW
227°
SW
230°
SW
244°
WSW
249°
WSW
256°
WSW
260°
W
259°
W
245°
WSW
254°
WSW
255°
WSW
288°
WNW
309°
NW
330°
NNW
352°
N
10°
N
15°
NNE
15°
NNE
21°
NNE
28°
NNE
28°
NNE
23°
NNE
17°
NNE

N
18°
NNE
12°
NNE
23°
NNE
13°
NNE
30°
NNE
17°
NNE
18°
NNE
20°
NNE
18°
NNE
12°
NNE

N

N

Daily Forecast

Date High Low Precip. Humidity
Today
Jan 20

Rain
51 °F
36 °F
28%
56%
Thursday
Jan 21

Rain
57 °F
44 °F
100%
97%
Friday
Jan 22

Rain
53 °F
39 °F
100%
89%
Saturday
Jan 23

Clear
53 °F
31 °F
0%
49%
Sunday
Jan 24

Rain
51 °F
41 °F
79%
89%
Monday
Jan 25

Rain
65 °F
52 °F
100%
92%
Tuesday
Jan 26

Rain
62 °F
50 °F
98%
79%
Wednesday
Jan 27

Clouds
49 °F
39 °F
0%
68%
Thursday
Jan 28

Clear
41 °F
28 °F
0%
66%
Friday
Jan 29

Clear
50 °F
29 °F
0%
51%
Saturday
Jan 30

Clouds
55 °F
41 °F
0%
78%
Sunday
Jan 31

Rain
58 °F
48 °F
100%
94%
Monday
Feb 1

Rain
53 °F
40 °F
81%
69%
Tuesday
Feb 2

Clear
52 °F
33 °F
0%
47%
Wednesday
Feb 3

Clear
58 °F
34 °F
0%
43%
Thursday
Feb 4

Rain
51 °F
41 °F
89%
74%


Temperature 8-14 Day Outlook



Precipitation 8-14 Day Outlook




Quick Links
Smith Lake News
Smith Lake Photos
Smith Lake Videos




About Us
Contact Us
Site Map
Search Site
Advertise With Us
   
www.SmithLake.info
THE SMITH LAKE WEBSITE

Copyright 2021, Lakes Online
Privacy    |    Legal